Wind_Speed
9 9 9 8 8 8 8 8 7 6 7 7 6 6 6 5 5 6 6 7 9 9 10 11 13 15 15 15 17 18 19 20 21 21 23 23 23 23 22 22 22 22 22 22 21 20 20 20 20 20 20 18 17 16 15 16 16 15 15 14 14 13 13 12 12 12 12 11 10 9 9 9 9 9 10 11 12 13 14 14 14 14 14 14 14
9 10 10 10 9 8 8 9 8 7 7 7 8 8 7 7 7 8 7 7 9 10 10 10 12 14 14 14 15 16 18 20 20 21 22 23 23 23 23 23 22 22 22 22 22 22 21 21 21 21 21 20 18 17 16 17 17 17 17 16 15 14 14 13 13 14 14 13 12 11 10 10 10 10 11 12 12 13 14 14 15 15 16 16 15
9 9 10 11 11 10 10 10 9 9 8 8 9 9 10 10 9 9 9 9 10 10 10 10 11 13 13 14 14 15 16 18 19 20 21 22 23 22 23 24 23 23 23 23 23 22 22 22 22 22 22 21 20 19 18 18 19 19 19 18 16 16 15 14 14 14 15 15 14 13 11 11 11 11 11 12 13 13 14 15 15 16 16 16 16
9 9 9 10 11 12 12 12 12 12 11 9 10 10 11 11 10 11 11 10 11 11 11 12 12 12 13 14 14 15 16 17 18 18 19 21 22 21 20 22 23 24 24 25 24 23 23 23 23 23 23 22 21 21 20 20 20 20 20 18 18 17 16 15 14 14 15 16 16 15 14 13 12 12 11 12 13 14 15 16 16 16 16 16 15
10 10 11 11 11 12 13 14 14 14 14 13 13 13 12 12 12 12 12 12 12 11 12 13 13 12 13 13 14 14 14 15 16 17 18 19 20 20 20 21 22 23 24 25 25 24 25 25 24 24 24 24 23 23 22 22 22 21 20 20 19 18 17 16 16 15 15 16 17 17 16 14 13 13 13 13 14 15 16 16 16 16 16 15 15
10 11 12 12 12 13 13 14 14 14 15 15 15 15 15 14 14 14 14 13 13 13 13 13 12 12 13 13 13 13 14 14 14 16 18 20 20 21 23 22 21 22 23 24 25 25 25 25 25 25 25 25 25 24 24 24 24 23 22 21 20 19 18 18 17 16 16 16 17 18 18 16 15 15 15 15 15 15 16 16 16 16 16 16 16
11 12 12 13 13 14 14 14 15 15 15 16 16 15 15 15 15 15 15 15 15 15 15 14 13 13 13 12 12 12 13 13 14 16 19 21 22 23 24 23 23 23 23 23 23 24 25 26 27 26 26 26 26 26 26 26 26 25 25 23 22 21 20 19 18 18 17 17 18 19 19 18 18 17 17 16 16 16 16 16 16 16 16 17 16
13 13 13 14 14 14 14 15 15 16 16 16 17 17 16 15 15 15 15 15 15 16 16 16 15 14 13 13 13 13 12 12 14 16 18 20 20 22 23 23 24 24 23 23 23 24 26 27 27 27 27 27 27 27 27 28 28 27 26 25 24 23 22 21 20 20 19 19 19 20 21 20 20 19 18 17 16 17 17 17 16 16 16 16 17
15 15 14 14 15 15 15 15 16 16 17 17 17 18 17 17 16 16 16 15 16 16 17 16 16 15 15 13 13 13 12 12 13 15 17 19 19 20 21 22 24 24 24 24 24 25 25 26 27 28 28 27 27 28 29 30 30 29 28 27 25 25 24 24 23 22 22 21 20 20 22 23 22 21 20 19 18 18 18 17 17 17 17 17 17
18 17 16 16 16 16 16 16 16 16 17 17 17 18 18 18 17 17 16 16 16 17 17 17 17 17 16 15 14 14 14 14 14 14 16 18 19 19 19 20 23 24 24 25 25 25 25 26 27 27 28 28 28 29 31 32 32 31 30 28 27 26 27 26 25 24 24 23 22 22 22 24 25 23 21 20 20 20 19 18 18 18 18 18 17
20 19 19 18 18 18 18 18 18 18 18 18 18 18 19 18 18 18 17 17 17 17 17 18 18 18 17 17 16 16 16 15 14 15 15 16 17 18 18 19 22 22 23 25 26 26 26 25 26 27 28 27 28 28 30 31 32 33 32 30 28 27 28 27 26 25 25 24 23 23 23 24 25 25 24 22 21 21 21 20 20 20 20 19 18
22 21 21 21 20 20 20 19 19 19 19 19 19 19 19 19 19 19 19 18 18 18 18 18 18 19 19 18 18 17 17 16 15 16 16 15 16 17 17 18 20 21 22 23 25 27 27 26 26 27 28 26 26 27 28 30 31 31 31 30 29 28 29 28 28 27 26 25 25 24 24 23 24 24 24 23 23 22 22 22 22 22 21 21 20
24 24 24 24 23 22 22 21 21 21 21 20 20 20 20 20 20 21 20 20 20 19 19 19 19 19 19 19 19 19 19 18 17 16 16 15 16 16 17 17 18 19 19 21 23 25 26 27 26 26 26 25 25 26 27 29 29 30 30 31 31 30 30 31 31 30 28 27 27 26 25 24 23 23 23 24 24 23 22 23 23 23 23 23 23
27 27 26 26 26 25 24 23 23 23 22 22 22 21 21 21 21 21 21 21 21 21 21 21 20 20 20 20 20 20 19 19 19 18 17 16 15 16 16 16 17 17 16 18 21 23 25 27 27 26 24 25 26 26 27 28 28 30 31 32 32 31 32 32 33 32 30 29 29 28 27 25 23 23 23 23 23 23 24 24 23 23 24 24 25
28 28 28 28 28 27 26 26 25 24 24 23 23 22 22 22 22 22 22 23 23 23 23 22 22 21 22 21 21 21 20 20 20 19 19 17 16 15 14 14 15 16 16 16 18 21 25 27 28 27 25 26 27 26 26 27 28 30 31 32 32 33 34 34 34 34 33 31 30 29 27 26 25 24 23 22 22 23 26 25 23 23 24 24 24
27 27 28 29 29 28 28 28 28 27 27 26 25 24 24 23 23 23 23 24 24 24 24 24 24 23 23 23 22 22 22 21 21 20 20 19 18 16 14 14 14 15 15 16 17 21 23 23 25 26 27 27 27 26 25 25 26 28 30 32 32 33 33 34 34 34 33 32 31 29 28 28 27 27 25 24 23 23 24 24 23 23 24 23 24
30 29 28 28 27 27 28 29 29 29 29 29 28 27 26 25 25 24 24 24 25 25 25 26 26 25 25 24 24 23 23 23 22 21 21 20 20 18 16 15 15 14 15 15 17 22 22 20 20 23 27 29 28 28 28 26 25 25 26 28 29 30 32 33 34 33 32 32 30 29 30 31 30 29 27 24 22 23 22 21 22 24 24 24 24
34 32 32 30 29 28 29 29 29 29 29 30 30 29 29 28 27 26 25 25 25 26 26 26 27 27 27 27 26 25 24 24 24 23 22 22 21 21 18 17 16 16 15 15 17 20 21 21 21 22 25 28 29 29 30 29 28 26 25 25 25 27 30 32 35 35 33 32 31 30 31 33 32 30 28 25 22 21 22 22 23 24 24 24 24
36 36 35 34 34 33 31 29 29 28 29 30 30 30 30 30 29 28 27 27 26 27 26 27 27 28 28 29 29 28 26 26 25 25 24 24 23 23 21 20 19 18 17 17 17 18 18 19 20 21 23 25 27 28 29 29 30 30 30 28 25 23 24 27 30 32 33 33 32 31 31 32 32 30 28 25 23 22 22 23 23 23 23 23 23
36 37 37 36 36 37 34 32 32 31 30 30 30 30 30 30 30 29 28 28 27 27 27 28 28 28 29 30 30 30 29 28 27 26 26 26 25 25 24 23 21 20 19 19 19 19 18 18 17 18 20 21 23 26 28 28 28 30 31 30 27 24 22 22 22 25 28 31 33 33 32 32 32 31 28 25 24 24 23 22 22 22 22 22 22
36 37 38 38 38 38 38 37 35 32 30 29 29 29 30 30 30 30 30 29 29 29 28 29 28 29 29 30 31 31 31 30 29 28 28 27 27 27 25 25 23 22 21 20 20 21 20 18 17 18 18 17 19 22 25 26 26 26 28 29 29 27 25 23 22 22 24 28 31 32 34 34 34 32 29 26 25 25 24 23 22 20 20 21 21
38 38 39 39 40 40 41 41 40 37 34 34 33 31 30 31 32 32 31 30 30 30 30 30 30 30 30 30 31 31 31 31 30 30 29 29 29 29 28 27 25 24 23 22 22 21 20 19 18 18 18 17 16 18 21 23 24 24 25 26 28 28 27 26 25 23 23 25 27 30 32 34 34 33 30 27 26 24 24 24 22 19 19 20 20
38 39 40 41 41 41 42 43 43 42 40 40 40 37 34 34 34 34 34 32 31 31 32 32 32 32 31 30 31 31 31 31 31 31 30 30 30 30 30 30 28 27 25 24 24 22 20 21 19 18 18 17 15 15 16 18 21 23 24 25 26 27 27 27 27 25 24 24 25 28 30 31 32 32 30 27 26 26 24 24 22 19 19 19 19
37 38 40 41 42 42 42 43 44 44 43 42 42 42 40 39 36 34 34 35 33 33 33 34 34 34 33 32 31 31 31 31 31 31 31 31 30 31 31 31 30 29 27 27 27 24 22 21 19 18 18 17 17 15 14 15 17 20 23 25 26 26 26 26 26 25 24 23 23 24 27 29 30 31 29 27 27 27 26 26 24 22 21 20 19
35 36 38 40 43 44 43 43 44 45 45 44 44 44 43 41 38 36 36 35 35 35 35 36 36 36 35 34 33 32 31 31 31 31 32 31 31 31 31 31 32 32 30 28 28 25 25 23 19 18 19 18 17 17 16 14 14 15 19 23 25 25 25 25 26 26 24 23 22 23 24 26 28 29 29 28 27 27 27 28 27 25 24 23 21
34 34 34 36 40 43 45 44 44 45 45 45 45 46 46 44 42 41 40 39 40 39 38 38 37 37 38 37 35 34 33 32 31 31 31 31 31 31 31 32 32 33 33 31 29 26 26 26 22 19 19 19 18 17 17 15 14 14 15 18 22 24 25 26 26 26 25 24 23 23 24 25 27 28 27 27 27 26 27 28 28 27 26 25 25
35 34 34 33 34 38 42 44 44 45 45 45 45 46 47 46 46 45 43 41 42 41 41 40 39 39 40 39 37 36 35 34 33 32 32 31 31 31 31 32 31 32 33 33 32 30 27 26 24 22 20 20 19 18 17 16 15 15 14 15 17 20 23 24 25 25 25 25 25 25 25 25 27 28 27 26 25 25 26 27 28 27 27 26 26
35 35 35 34 33 33 35 39 42 44 45 45 45 46 46 47 48 48 46 44 43 42 43 43 41 40 41 40 39 38 37 36 35 34 33 32 32 32 31 32 32 32 32 32 33 33 31 27 25 24 23 21 20 19 17 17 17 15 15 14 15 16 18 20 22 23 24 24 26 27 27 26 25 27 28 26 24 24 24 25 26 26 25 25 25
35 34 35 35 34 33 33 34 37 40 42 44 44 45 46 46 47 48 48 47 46 45 45 44 42 41 40 39 39 38 38 38 37 36 36 35 34 33 32 32 32 32 32 31 32 33 33 31 28 24 23 23 22 20 18 18 17 15 15 15 14 13 14 15 17 20 22 23 24 25 26 26 24 24 26 26 25 24 24 24 25 25 26 25 25
35 34 34 35 35 35 34 33 34 35 38 40 42 43 44 45 46 48 48 49 49 47 45 44 43 43 43 40 37 37 38 40 39 38 38 37 36 35 33 33 32 33 33 32 32 33 32 33 31 26 23 24 24 22 20 20 19 16 15 16 14 12 11 11 13 15 18 20 21 22 23 25 25 25 25 26 27 26 25 26 27 28 28 27 26
35 35 35 35 35 35 35 34 34 33 34 35 38 41 42 42 43 44 46 50 51 49 46 43 41 43 46 46 42 39 39 40 41 41 40 39 39 37 35 34 34 34 34 34 34 34 33 33 33 30 26 26 26 24 22 21 21 17 14 15 15 12 10 10 11 12 13 16 18 20 22 23 25 26 27 28 28 28 28 28 29 30 30 30 29
35 35 35 35 35 35 35 34 34 34 34 33 34 38 40 41 43 43 43 46 48 49 49 48 44 42 44 47 48 44 41 41 41 42 42 41 41 40 37 36 35 35 36 35 35 36 34 33 34 32 29 27 28 27 23 22 23 20 16 16 15 13 11 11 11 11 11 12 13 15 18 21 24 26 28 30 30 31 30 30 31 31 31 31 31
34 34 35 35 35 35 35 34 34 35 35 33 32 34 36 40 43 44 44 44 45 46 47 49 48 46 44 45 47 46 44 43 41 40 43 43 42 42 41 38 36 36 37 36 37 37 35 34 35 34 32 30 30 29 26 24 24 23 20 17 16 14 13 12 12 12 12 11 10 11 13 16 19 22 25 27 28 29 30 30 31 31 31 31 31
32 33 34 35 35 35 35 35 34 34 35 34 33 32 33 36 39 41 44 45 46 45 44 44 45 45 44 43 45 46 46 46 44 41 43 45 44 43 43 41 38 36 37 37 37 38 37 34 35 36 34 31 31 32 29 26 25 25 23 21 18 16 14 14 14 13 12 11 10 10 10 10 11 14 16 19 21 23 25 26 27 28 28 29 29
30 31 33 34 35 36 36 35 34 34 34 34 34 32 31 32 34 37 41 45 47 46 45 44 41 40 43 45 47 48 46 45 46 44 42 44 46 45 44 43 41 38 37 37 36 38 38 36 35 36 35 33 32 33 32 29 27 28 26 23 22 19 15 15 16 15 13 12 12 12 11 9 8 9 9 11 13 15 17 19 20 21 22 23 25
30 31 32 33 34 35 36 36 35 34 33 34 34 33 31 29 31 34 39 42 44 45 45 46 42 37 37 42 46 48 46 43 43 45 44 43 45 46 45 45 43 40 37 37 36 37 37 37 37 36 36 34 34 34 34 31 29 30 29 26 25 23 18 16 18 18 14 13 12 12 12 11 10 9 9 8 8 9 10 11 12 13 14 15 17
30 31 32 33 34 35 35 36 36 35 33 33 33 33 32 30 31 34 37 39 41 42 44 46 48 43 38 37 40 45 47 44 42 45 46 44 44 46 46 45 43 41 39 36 36 37 37 37 38 38 37 35 35 35 36 34 31 31 31 30 28 26 22 18 19 20 17 14 14 13 14 14 13 12 11 10 10 9 9 9 9 9 9 10 10
31 32 32 33 34 35 35 35 36 36 35 33 33 33 32 31 31 34 36 37 37 40 42 45 49 51 48 42 37 39 44 45 42 43 44 44 45 45 44 45 44 42 40 37 37 38 37 36 37 38 38 37 36 35 36 36 34 32 32 32 31 29 26 23 22 22 20 17 16 15 15 15 15 15 14 14 13 12 11 11 10 10 9 9 9
32 32 33 34 35 36 36 36 37 37 36 34 32 33 33 33 32 33 35 36 36 38 40 43 45 49 51 49 42 36 37 42 44 45 44 44 45 44 43 45 46 44 42 40 39 39 38 38 37 37 38 38 37 37 36 37 37 36 35 34 32 31 30 27 25 23 23 21 19 18 17 16 16 17 16 16 16 15 15 14 13 13 12 11 11
33 33 34 35 36 37 37 38 38 38 37 36 34 33 33 34 34 33 34 35 37 38 38 40 43 45 49 51 48 40 35 38 43 45 44 44 45 45 45 46 48 47 44 42 41 41 39 39 38 37 38 38 38 38 38 38 37 37 38 37 34 32 32 31 29 26 25 25 23 20 19 18 18 18 18 18 18 18 18 17 17 16 15 15 14
34 35 36 37 38 38 38 39 40 40 39 37 36 34 33 33 34 34 33 34 36 38 39 40 42 44 45 48 51 48 41 38 40 41 43 45 46 45 44 47 49 48 45 43 44 44 42 39 39 38 37 38 38 38 39 39 37 37 38 39 37 35 33 32 32 30 29 28 26 24 22 21 20 20 19 20 19 19 20 19 19 18 18 18 17
36 37 38 39 39 40 40 40 41 41 41 39 37 36 34 33 34 34 34 34 35 36 38 40 42 43 43 43 47 49 46 42 41 42 44 46 46 44 42 44 47 49 47 45 44 45 43 40 39 38 38 38 38 38 39 39 38 38 38 39 39 39 35 32 33 33 32 31 29 27 26 25 23 22 21 21 21 21 21 21 20 20 20 20 19
38 39 40 41 41 42 42 42 42 43 42 41 39 37 36 35 34 34 34 34 35 35 35 38 41 42 42 42 42 43 45 45 44 45 46 46 47 46 44 43 45 47 48 46 43 42 43 41 40 40 39 39 39 39 39 39 38 38 39 39 40 41 38 34 33 35 35 33 31 30 29 28 27 25 24 24 23 22 22 22 22 21 21 21 21
41 42 43 43 44 44 44 44 44 44 44 42 39 38 37 36 34 34 34 34 35 35 34 35 39 40 40 40 38 38 41 44 44 45 47 47 47 47 46 45 45 46 47 45 43 42 42 42 41 40 40 41 41 41 40 38 37 38 39 40 40 41 41 37 35 35 35 34 34 33 31 30 30 28 27 26 26 25 24 24 24 23 23 22 22
45 45 46 46 46 46 46 46 45 45 45 42 40 38 37 36 35 34 34 34 34 35 34 34 37 40 39 38 36 35 37 42 44 44 45 46 45 45 45 46 46 46 45 45 44 43 42 42 42 42 42 43 43 42 40 37 37 38 39 40 42 42 41 39 38 36 35 36 37 35 33 32 32 31 30 29 29 28 27 27 26 26 25 24 24
48 48 48 48 48 48 48 48 47 46 45 42 39 38 37 36 36 35 34 34 34 34 35 34 35 39 40 38 35 34 35 37 40 40 42 45 46 44 44 44 44 45 45 46 46 45 44 44 44 45 45 46 45 42 39 38 39 40 40 41 42 42 41 40 39 37 37 38 39 37 35 33 33 33 33 32 31 30 29 29 29 28 28 27 26
49 50 50 50 50 50 49 49 48 46 45 42 38 37 37 37 36 35 34 34 34 34 34 34 34 37 39 38 35 35 36 36 36 35 36 39 43 44 44 44 43 42 43 45 46 45 46 47 47 48 48 47 46 44 42 42 43 43 43 42 42 42 42 42 41 39 38 39 39 39 37 35 34 35 35 34 33 32 32 31 31 30 30 29 29
50 50 50 51 51 51 50 49 47 45 44 41 37 35 37 37 36 35 34 34 34 33 33 33 33 35 38 38 36 35 35 35 37 38 37 37 39 41 43 46 45 42 40 41 42 42 44 46 47 48 48 47 46 46 45 44 44 45 45 44 43 43 44 43 43 41 39 40 41 41 39 37 35 36 37 36 36 35 34 34 33 33 32 32 31
50 50 50 50 50 50 49 47 45 43 41 38 35 35 36 37 35 35 34 34 33 33 33 32 32 33 36 38 38 37 36 33 34 39 42 41 39 38 39 43 45 42 39 38 40 41 43 45 46 46 46 45 44 45 45 45 45 46 46 44 44 45 45 45 44 43 42 41 42 42 41 39 37 37 38 38 37 37 36 36 35 35 34 34 33
50 50 50 50 49 48 46 44 42 40 38 36 35 35 36 36 35 34 33 33 33 32 32 32 32 33 35 38 39 40 40 36 31 33 38 42 41 38 37 38 39 39 39 38 37 35 36 40 44 44 45 45 44 45 45 46 47 47 45 43 43 43 43 44 44 44 42 42 42 42 42 41 39 38 40 39 38 38 37 37 36 36 36 36 35
49 49 49 48 46 44 41 39 37 36 35 34 34 35 36 35 34 33 33 32 32 32 32 32 33 33 35 37 38 40 42 40 34 30 32 36 37 37 37 36 36 38 40 40 37 33 30 32 36 39 42 44 44 44 45 44 45 44 42 41 40 40 40 42 42 42 41 41 42 42 42 42 41 40 41 41 40 39 39 38 38 38 37 37 37
Wind_Direction
345 339 339 340 334 336 335 334 342 342 340 343 343 339 337 337 318 318 314 299 303 294 280 278 274 271 269 268 267 268 267 266 267 263 259 258 257 256 255 255 255 256 258 259 257 256 256 255 254 251 249 249 249 249 248 247 249 253 257 263 271 277 279 277 269 260 254 254 253 252 250 246 238 232 232 232 231 231 233 236 237 238 239 238 236
332 330 330 327 325 328 321 318 321 318 318 321 322 320 316 314 304 303 305 298 300 296 288 283 278 275 275 274 272 271 269 267 268 267 265 263 260 258 257 255 254 254 256 257 257 258 257 255 255 254 253 252 250 250 250 249 250 254 257 261 266 271 273 273 272 266 257 253 251 249 247 246 242 234 231 232 232 231 230 232 234 237 239 240 240
325 328 328 323 322 323 317 313 311 309 308 308 307 304 300 299 298 297 296 291 289 290 292 289 285 285 284 283 278 275 274 267 265 266 267 269 267 263 259 257 255 254 253 254 256 257 256 255 255 255 255 255 252 250 250 250 251 253 256 260 263 266 268 268 271 269 262 256 252 249 249 248 247 243 238 236 236 235 232 231 232 235 238 241 242
324 324 319 316 317 317 316 315 315 315 314 311 304 299 299 299 298 296 293 290 287 288 289 287 286 289 290 289 284 282 281 272 266 267 267 269 268 261 261 262 260 258 256 254 254 253 254 254 254 254 255 255 254 252 250 251 251 252 255 257 260 263 267 269 269 270 265 258 254 251 250 251 250 249 245 241 240 239 237 235 235 236 239 242 244
317 314 311 310 310 309 308 309 311 313 313 312 308 307 310 310 306 301 298 294 289 285 283 284 288 290 290 289 285 283 280 275 273 270 266 267 263 257 262 267 266 266 263 258 255 253 253 253 253 252 253 254 254 252 251 251 251 252 253 254 256 259 263 266 267 269 269 263 257 253 252 254 255 251 246 243 241 240 241 241 242 243 245 246 246
300 300 301 303 304 302 301 302 303 304 304 305 307 310 313 312 309 305 303 299 294 290 284 285 288 286 285 285 285 284 278 274 273 270 270 272 267 262 265 266 264 264 263 260 258 256 255 254 253 252 252 252 253 253 252 252 252 252 252 252 253 254 257 261 264 267 269 266 259 255 253 254 256 253 249 245 243 243 244 246 249 251 251 251 250
282 284 288 291 293 295 296 298 298 298 298 299 302 304 306 306 305 302 301 299 296 294 290 289 286 282 283 283 283 284 280 274 271 270 273 274 271 268 269 267 263 260 260 262 261 259 258 256 254 253 252 251 251 252 252 252 252 252 252 252 252 253 253 256 259 262 265 265 261 256 253 254 255 255 253 250 248 247 246 247 250 253 255 256 255
270 274 278 281 284 286 289 290 292 294 295 297 297 297 297 298 298 297 297 297 295 293 291 289 285 282 283 284 283 283 280 273 270 270 272 271 269 269 269 267 264 260 259 262 261 259 258 257 255 254 253 251 251 251 251 251 252 252 252 252 252 253 254 254 255 258 259 261 262 257 254 254 256 257 257 256 254 252 251 250 250 253 255 257 257
263 266 269 272 275 277 279 281 283 286 289 291 292 291 291 290 290 291 292 294 293 292 291 289 287 284 283 283 281 282 281 274 271 269 270 271 268 268 268 266 264 261 258 259 260 260 258 258 257 257 256 254 252 250 249 250 251 251 251 251 252 254 255 255 254 256 257 257 260 259 255 254 255 258 259 258 258 257 256 256 256 256 255 256 257
263 263 264 265 267 270 271 273 275 278 280 282 283 284 284 284 285 285 286 288 289 290 290 289 288 285 283 281 278 278 277 273 273 269 267 269 269 268 269 269 269 265 260 258 257 257 258 259 260 259 259 257 254 251 249 248 248 249 250 250 251 254 255 255 255 256 257 257 258 259 257 254 254 256 259 260 260 260 260 259 259 257 256 256 257
266 265 265 265 265 267 268 269 271 273 275 277 278 279 279 280 280 279 280 280 282 284 286 287 285 284 282 279 278 279 276 274 274 271 267 267 268 269 272 276 277 271 263 259 256 256 257 261 262 259 256 254 252 251 250 249 248 248 248 248 249 251 254 255 257 256 257 258 258 260 261 259 256 255 257 259 261 262 262 261 260 259 258 257 256
269 267 267 266 266 267 268 268 270 270 272 273 275 276 277 278 278 278 277 276 277 280 282 282 282 281 280 279 279 278 278 276 274 273 271 270 268 270 272 276 278 275 270 263 259 258 259 264 265 256 250 250 251 252 252 250 250 249 249 248 247 249 252 254 253 252 252 254 256 257 260 262 260 258 256 257 259 260 262 262 261 260 259 258 256
278 275 272 269 267 266 266 267 268 267 268 269 270 272 274 276 277 278 277 277 277 278 279 279 279 280 279 278 276 275 275 275 273 273 273 273 271 271 270 270 272 275 277 272 265 262 262 263 264 256 251 254 256 254 254 254 254 252 251 250 249 248 251 253 252 250 249 251 252 251 252 255 257 259 256 253 254 256 258 259 259 258 258 258 256
284 281 278 275 271 268 266 265 265 265 266 266 267 268 269 271 273 275 276 276 276 276 276 277 278 278 277 276 274 273 272 272 273 274 273 273 272 271 271 271 272 273 275 273 269 269 267 263 261 259 258 260 260 257 257 258 257 254 252 252 251 250 250 252 253 253 252 251 252 251 252 255 257 258 256 253 253 254 254 254 255 256 256 257 256
283 282 282 280 275 272 270 267 265 264 263 264 265 265 266 267 268 270 272 273 274 274 274 274 274 275 275 275 274 273 271 270 271 272 272 271 269 269 270 271 271 272 272 270 268 267 266 265 264 264 263 261 259 259 260 260 260 258 255 254 253 251 251 252 253 254 254 253 253 255 257 260 260 258 257 254 251 252 253 253 253 253 253 256 258
284 283 283 281 276 274 275 273 270 268 266 264 264 264 264 265 266 267 268 270 272 273 273 273 272 271 272 272 272 272 271 270 269 267 268 268 267 266 264 264 265 267 270 271 268 264 261 264 267 266 266 263 259 258 259 260 262 264 261 257 253 253 253 254 254 254 255 256 256 256 257 257 256 255 254 251 249 250 253 255 255 253 251 253 257
287 285 280 278 278 278 277 275 273 271 270 268 265 264 263 263 263 263 265 266 268 270 272 272 272 272 271 270 269 269 269 269 268 266 266 266 266 265 260 258 259 260 263 264 264 264 262 264 269 267 266 266 264 262 261 260 262 267 266 260 256 256 255 255 254 253 254 257 257 256 254 253 253 254 254 253 253 254 254 256 259 258 254 252 254
285 283 278 276 278 278 278 277 273 271 270 270 269 267 265 263 262 261 261 262 263 265 267 269 270 271 271 271 269 268 266 266 265 264 264 263 263 263 259 255 254 255 258 258 259 266 269 268 270 271 267 268 269 268 265 261 260 263 265 265 265 263 260 257 255 254 254 255 255 254 254 253 253 255 257 257 258 256 253 254 258 259 257 255 255
282 281 279 278 276 275 276 276 274 273 271 271 271 269 268 267 264 262 260 259 259 260 262 264 266 268 269 270 270 269 267 266 264 263 262 261 261 261 260 256 253 250 251 254 256 263 271 270 272 275 272 272 273 271 270 266 261 260 261 263 269 270 265 262 258 255 254 253 253 252 252 253 254 256 258 259 259 256 254 255 259 260 259 258 257
284 280 279 278 276 273 273 272 274 274 272 269 268 268 268 268 266 264 261 259 258 258 259 260 262 264 266 267 268 268 268 267 265 264 262 261 260 260 260 258 255 252 251 253 255 259 265 270 274 277 277 278 275 271 270 269 266 264 263 262 263 266 267 266 263 259 256 254 252 251 250 253 255 256 256 256 256 256 255 258 261 262 261 258 258
287 282 279 277 275 272 271 271 272 271 268 266 267 267 265 264 264 262 261 260 259 258 258 259 260 261 262 264 265 266 266 266 265 264 262 261 260 259 258 258 257 255 253 253 255 258 261 266 270 274 280 284 281 274 270 269 268 267 266 263 260 261 264 266 264 264 262 258 255 253 253 253 255 256 255 252 253 255 254 254 256 260 260 257 258
288 286 282 279 277 274 272 271 270 268 265 265 269 270 266 264 262 260 259 259 260 260 260 259 258 258 259 261 263 264 265 265 265 264 262 260 260 259 258 257 256 256 255 254 254 257 261 263 265 269 275 282 286 282 275 270 267 266 265 264 261 260 262 263 263 265 265 262 258 256 254 252 252 253 253 251 252 254 252 250 252 256 258 257 259
288 286 283 281 280 277 275 272 270 267 264 264 267 267 265 266 266 262 259 258 259 260 261 260 258 257 257 257 259 261 262 263 264 263 262 261 260 260 259 258 257 256 256 255 254 255 259 261 262 266 270 276 281 283 279 272 266 263 263 263 262 261 260 262 265 267 268 266 262 258 254 251 250 251 252 251 251 251 250 249 249 251 255 258 260
291 287 283 280 279 278 276 274 272 269 265 262 262 262 263 265 265 262 260 259 258 259 259 259 258 257 255 254 255 257 258 260 261 261 262 261 260 260 260 260 259 257 256 257 256 254 255 257 262 267 270 273 276 279 280 275 268 261 258 258 260 260 259 261 263 264 267 268 264 258 253 250 250 251 251 251 251 250 247 247 248 250 253 258 260
299 294 288 282 278 276 274 273 272 271 269 265 261 260 260 262 261 258 258 258 258 259 258 257 256 255 254 252 251 252 253 255 256 258 259 259 259 260 260 260 261 260 258 258 260 260 257 255 255 262 268 271 275 279 281 281 279 272 263 257 257 258 258 258 259 260 263 265 263 257 252 250 250 251 251 252 253 251 248 248 249 249 251 255 257
308 305 299 290 282 277 274 272 269 269 269 268 265 261 259 259 258 257 257 257 259 260 258 256 254 253 252 250 249 248 248 250 252 253 255 257 257 258 259 260 261 261 260 259 259 260 261 260 256 256 262 268 271 275 278 282 284 282 277 269 262 260 259 258 259 259 260 262 261 258 255 253 251 249 250 252 253 252 249 247 248 248 250 255 257
316 315 312 305 295 286 280 276 271 268 266 266 266 264 262 259 257 256 256 258 259 258 257 255 254 253 251 247 247 246 246 246 247 249 251 253 255 256 257 259 260 261 262 262 261 257 256 260 261 259 259 263 268 272 275 278 279 282 286 285 277 269 263 260 260 260 259 258 258 257 257 258 256 250 249 251 253 251 247 245 246 248 252 256 257
321 319 317 314 308 300 292 285 279 272 267 265 264 264 263 261 259 257 256 257 257 258 256 253 253 254 251 246 244 244 244 245 245 246 247 248 251 253 255 257 258 260 261 263 264 262 258 256 258 259 260 261 263 267 271 273 273 278 284 289 290 284 274 266 262 262 260 258 257 258 258 262 261 253 248 249 251 250 246 244 245 249 253 257 258
325 322 319 317 313 307 301 296 290 282 273 267 264 263 263 263 262 260 258 256 256 258 256 250 249 253 252 249 245 242 243 244 245 245 245 246 247 249 251 254 256 258 260 261 263 265 264 260 257 256 259 262 263 264 267 269 269 271 277 283 289 293 289 280 270 264 262 261 259 259 258 259 259 254 248 248 249 250 249 246 246 248 253 257 259
329 325 321 319 316 311 305 301 298 293 283 274 267 263 262 263 263 262 261 258 256 257 256 251 250 251 251 251 249 245 243 243 244 245 245 245 246 246 248 251 254 256 258 259 260 261 263 263 260 254 252 256 260 262 264 267 267 264 267 273 279 286 293 294 284 271 266 263 261 260 259 256 252 249 248 248 249 249 249 248 248 249 252 255 257
332 329 324 320 318 315 310 304 300 299 293 284 273 265 261 261 262 261 260 259 258 257 257 254 252 250 250 251 252 251 247 244 243 244 244 244 245 245 246 249 252 255 256 257 258 259 259 261 262 259 254 254 256 258 259 263 265 262 259 265 270 276 283 288 289 286 277 271 265 261 259 257 253 250 249 249 249 249 250 250 251 251 253 254 255
333 331 327 323 319 316 314 310 304 301 299 293 281 269 262 258 258 259 259 258 258 257 257 257 255 252 250 252 252 253 252 248 244 243 243 244 244 245 246 248 250 253 255 256 257 258 258 259 260 259 255 254 255 255 255 258 262 261 256 258 264 269 273 274 280 287 288 286 282 272 263 258 256 254 252 251 252 253 254 255 255 255 255 254 255
332 331 328 325 321 317 315 313 309 305 302 300 291 277 266 259 257 258 259 258 257 256 257 258 258 255 254 254 252 252 253 251 247 244 242 243 245 246 246 248 249 251 253 254 255 256 256 257 259 259 255 253 253 253 251 250 257 260 256 253 256 261 266 268 269 275 282 289 295 289 276 264 258 255 254 253 252 253 255 257 258 258 257 256 255
330 330 328 325 322 318 315 313 311 308 304 302 298 288 274 265 259 258 259 259 257 256 254 255 257 255 254 253 249 249 253 252 250 247 243 242 244 246 248 248 248 249 251 252 253 254 254 254 257 259 257 254 254 254 252 248 250 255 255 253 252 252 258 265 266 266 273 279 282 284 287 281 269 260 256 254 252 252 254 256 258 259 259 258 256
327 327 326 325 323 320 316 314 311 309 306 303 300 295 284 272 263 260 262 261 258 255 252 250 253 255 253 250 246 246 250 251 250 249 247 244 243 245 247 248 246 246 248 251 252 253 254 252 252 256 257 256 255 255 255 253 251 252 252 252 254 252 250 258 263 262 263 265 267 272 281 286 284 276 266 259 255 253 253 254 256 257 258 258 258
324 325 325 324 323 320 317 314 312 309 306 303 300 298 292 279 264 259 260 259 256 254 251 248 248 251 253 253 250 247 247 247 247 247 249 248 244 243 245 246 245 245 246 249 251 251 252 252 251 252 254 255 255 254 254 253 253 253 252 249 251 252 248 249 258 260 258 257 257 261 268 272 274 275 274 268 262 257 254 253 254 255 257 258 258
320 322 323 323 322 320 317 314 312 310 306 303 299 298 296 286 270 260 259 259 255 253 251 248 246 248 251 255 254 248 244 245 246 246 248 249 246 243 244 245 244 245 245 246 249 250 251 252 252 252 252 252 252 254 254 252 250 252 254 252 250 250 248 246 253 257 256 255 255 254 255 259 261 261 263 264 262 261 259 258 257 256 257 257 255
315 318 320 320 320 319 317 314 311 309 306 303 300 296 294 289 279 269 263 259 256 253 251 248 247 249 250 252 256 252 244 242 245 246 246 248 248 244 242 243 244 244 244 245 247 249 249 250 253 253 252 251 249 250 253 254 251 249 251 253 252 251 248 245 248 255 257 255 254 253 250 251 254 254 254 256 257 257 257 256 255 255 255 256 255
311 313 316 318 317 317 316 314 311 308 306 303 300 295 292 289 285 278 270 263 257 254 251 248 247 248 249 250 255 257 248 240 241 242 242 244 248 247 243 243 243 242 242 245 247 247 247 248 251 253 253 252 250 248 249 251 253 252 251 250 251 252 252 248 245 250 256 255 253 252 251 248 249 250 250 251 251 252 253 252 251 251 250 249 249
307 309 312 314 315 314 313 312 310 308 306 304 300 296 292 289 287 284 279 270 264 259 254 249 247 248 249 250 252 256 253 245 241 242 243 243 245 248 246 244 243 241 241 245 248 247 247 247 248 252 253 252 251 249 248 248 249 252 253 252 250 250 251 252 249 248 252 255 253 251 252 250 247 246 247 248 249 248 249 250 250 250 249 247 246
305 307 309 311 312 312 310 309 307 306 305 303 300 297 293 289 287 285 282 277 270 264 259 253 249 249 251 251 251 253 255 251 245 243 243 243 242 245 246 244 244 243 242 245 247 245 245 246 247 249 252 252 251 250 250 249 247 247 251 254 253 249 248 251 253 250 249 253 255 254 252 250 248 246 245 245 246 247 247 248 249 250 249 249 248
306 306 307 308 308 308 307 306 305 304 303 302 300 298 294 289 286 284 283 280 275 269 264 259 254 251 252 252 252 252 253 252 248 244 242 242 241 242 243 242 243 243 242 244 245 242 242 244 246 247 250 251 251 250 249 250 249 247 247 250 253 252 248 247 251 253 251 250 252 254 254 252 249 247 247 246 244 245 245 246 247 248 249 249 249
307 307 306 306 305 305 304 303 302 301 301 301 300 298 295 291 287 283 282 280 278 274 269 263 257 253 252 252 252 252 250 249 249 247 246 246 244 242 242 241 240 240 241 243 243 240 239 242 244 247 249 249 249 249 248 249 250 249 247 247 249 252 251 248 247 251 253 252 251 252 253 254 252 249 248 247 246 245 246 246 246 246 247 248 248
308 306 305 304 303 302 301 300 299 299 299 299 299 297 295 292 288 283 280 279 278 276 271 266 260 255 252 251 250 250 248 246 247 247 247 249 248 246 244 243 240 238 238 240 241 239 239 240 242 245 247 249 248 247 247 248 249 250 250 249 248 250 251 249 247 248 252 254 252 250 250 252 253 252 251 249 249 247 247 248 248 248 248 248 248
308 306 304 303 301 300 299 299 298 298 298 299 298 296 294 290 286 283 279 277 276 275 272 267 261 257 253 249 247 246 247 246 246 247 247 249 250 248 246 245 243 240 238 238 239 239 240 241 241 242 244 247 248 246 246 248 248 249 249 250 249 249 249 249 248 247 248 251 252 251 250 251 253 254 253 252 251 250 250 250 249 250 250 250 250
307 305 303 302 300 299 298 297 297 297 298 298 297 295 292 288 285 281 279 276 274 273 272 268 261 257 254 249 243 241 242 245 246 248 249 249 249 247 245 245 245 244 243 242 242 241 242 242 242 242 244 247 249 249 247 246 247 247 247 249 250 250 250 249 247 246 246 249 251 252 250 250 251 253 253 253 253 253 253 253 252 252 252 252 252
307 305 303 301 299 298 297 296 297 298 297 298 297 293 289 286 284 281 278 276 273 271 271 269 264 257 253 250 244 237 235 238 241 245 249 250 249 246 244 241 241 243 244 244 244 244 244 244 244 244 246 247 249 251 248 245 245 246 247 249 251 252 251 249 248 246 245 247 250 251 250 249 250 252 253 253 253 254 254 254 255 255 255 255 255
307 304 302 300 299 298 298 298 299 299 299 298 296 290 286 284 284 282 278 275 273 270 269 269 267 260 254 250 244 236 232 233 236 238 242 246 248 247 245 242 241 243 246 247 246 244 244 244 245 245 247 247 247 248 248 246 246 247 247 248 250 250 250 250 249 248 246 245 247 249 250 249 249 251 252 253 253 254 254 255 257 257 258 258 257
307 304 302 301 301 301 301 302 301 300 299 298 293 287 284 283 283 282 279 274 271 269 267 266 265 261 255 249 243 235 230 230 234 238 239 240 244 247 246 245 245 247 249 249 248 247 245 244 245 245 246 246 244 245 247 247 246 246 247 247 247 248 249 249 249 248 247 246 246 248 249 249 249 250 252 252 253 254 254 255 256 258 259 259 259
307 305 304 303 304 305 305 305 304 302 299 296 291 287 284 283 282 280 278 275 271 267 265 264 263 260 254 249 244 236 230 227 231 238 239 237 239 242 245 245 244 243 243 243 243 244 245 244 243 244 244 244 244 244 245 245 244 243 243 243 243 244 245 247 248 248 247 247 246 246 248 248 248 249 251 253 253 254 255 255 256 257 259 260 260
309 308 307 308 309 310 310 308 306 303 301 297 292 288 285 283 282 280 278 276 272 267 263 261 261 261 256 251 247 241 234 229 227 233 239 239 238 239 239 238 236 233 234 238 241 243 243 242 240 239 239 239 240 239 239 239 237 236 236 238 239 240 242 244 246 247 247 247 247 246 247 248 247 247 249 252 253 253 254 255 256 257 258 259 260
Height
5811 5810 5811 5811 5811 5812 5812 5813 5814 5814 5813 5813 5813 5812 5812 5812 5812 5812 5811 5810 5810 5809 5809 5809 5809 5808 5807 5808 5809 5809 5809 5809 5810 5810 5810 5810 5811 5812 5813 5814 5816 5817 5818 5819 5820 5821 5822 5823 5823 5824 5824 5825 5826 5827 5828 5828 5828 5828 5829 5829 5829 5830 5830 5831 5831 5831 5832 5832 5832 5832 5832 5832 5833 5833 5833 5834 5834 5835 5835 5836 5836 5836 5837 5837 5837
5810 5809 5809 5810 5810 5810 5811 5812 5812 5813 5812 5812 5812 5812 5811 5811 5811 5810 5810 5810 5809 5808 5808 5807 5807 5806 5805 5806 5807 5807 5808 5808 5809 5809 5808 5808 5809 5810 5811 5812 5813 5814 5815 5816 5818 5819 5820 5821 5821 5822 5823 5824 5825 5826 5826 5826 5827 5827 5827 5828 5829 5829 5829 5829 5829 5830 5830 5830 5831 5831 5831 5831 5831 5831 5832 5832 5833 5833 5833 5833 5834 5834 5834 5835 5835
5808 5808 5807 5807 5807 5808 5809 5809 5810 5810 5811 5811 5811 5811 5810 5810 5809 5808 5808 5808 5808 5807 5806 5806 5805 5804 5804 5805 5806 5806 5806 5807 5807 5807 5807 5807 5808 5808 5809 5809 5810 5811 5812 5814 5815 5816 5817 5818 5819 5820 5821 5822 5823 5824 5824 5825 5825 5825 5826 5827 5827 5828 5828 5828 5828 5828 5829 5829 5830 5830 5830 5830 5830 5830 5831 5831 5831 5831 5832 5831 5831 5832 5832 5833 5834
5807 5807 5807 5807 5807 5807 5806 5806 5807 5807 5808 5808 5809 5809 5809 5808 5807 5807 5807 5807 5806 5806 5805 5805 5804 5803 5803 5804 5804 5805 5805 5806 5806 5806 5806 5806 5806 5806 5806 5807 5808 5809 5810 5811 5812 5813 5814 5815 5816 5817 5818 5819 5820 5822 5822 5822 5823 5823 5824 5825 5826 5826 5826 5826 5827 5827 5827 5828 5828 5829 5829 5829 5829 5830 5830 5830 5830 5830 5830 5830 5830 5830 5831 5831 5832
5805 5805 5806 5806 5806 5806 5806 5806 5805 5805 5805 5806 5806 5806 5806 5806 5805 5805 5805 5805 5805 5805 5805 5804 5803 5803 5803 5803 5803 5804 5804 5804 5804 5804 5804 5804 5804 5805 5805 5806 5807 5808 5809 5809 5810 5811 5811 5812 5813 5814 5815 5816 5818 5819 5820 5820 5821 5821 5822 5823 5823 5824 5824 5825 5825 5825 5826 5826 5826 5827 5827 5828 5828 5828 5828 5828 5828 5828 5829 5829 5829 5829 5830 5830 5831
5803 5803 5803 5804 5804 5805 5805 5805 5805 5805 5805 5804 5804 5804 5804 5804 5804 5803 5803 5803 5804 5803 5803 5803 5802 5802 5801 5801 5802 5802 5802 5802 5802 5802 5802 5802 5803 5804 5804 5804 5805 5806 5806 5807 5808 5808 5809 5810 5810 5811 5812 5814 5815 5816 5817 5817 5818 5819 5820 5820 5821 5821 5822 5823 5823 5823 5824 5824 5824 5825 5825 5826 5826 5826 5826 5826 5827 5827 5828 5828 5829 5829 5829 5829 5830
5801 5801 5801 5801 5802 5802 5803 5803 5804 5804 5804 5804 5803 5803 5803 5803 5803 5802 5802 5802 5802 5801 5801 5801 5802 5801 5800 5800 5800 5800 5801 5801 5800 5800 5800 5800 5800 5801 5801 5802 5802 5803 5803 5804 5805 5806 5807 5807 5808 5808 5810 5811 5812 5813 5814 5815 5815 5816 5817 5817 5818 5819 5820 5820 5821 5821 5822 5822 5822 5823 5823 5824 5824 5824 5825 5825 5826 5826 5827 5827 5827 5828 5828 5828 5829
5799 5799 5799 5799 5799 5800 5800 5801 5801 5802 5802 5802 5802 5802 5802 5802 5802 5802 5801 5801 5801 5800 5800 5800 5801 5801 5800 5799 5798 5798 5799 5799 5798 5798 5798 5798 5799 5799 5798 5799 5799 5800 5802 5802 5803 5803 5804 5805 5805 5806 5807 5808 5809 5810 5811 5811 5812 5813 5814 5815 5815 5816 5817 5818 5819 5819 5819 5820 5820 5821 5821 5822 5822 5822 5823 5824 5825 5825 5825 5825 5826 5826 5827 5827 5827
5796 5796 5796 5797 5797 5797 5798 5798 5799 5799 5799 5800 5800 5800 5801 5801 5801 5800 5800 5800 5799 5799 5798 5798 5799 5799 5799 5798 5797 5796 5796 5796 5796 5796 5797 5796 5796 5797 5796 5796 5796 5797 5799 5799 5800 5800 5801 5802 5803 5803 5804 5805 5806 5807 5807 5808 5808 5810 5811 5812 5813 5813 5814 5815 5815 5816 5816 5817 5818 5818 5819 5819 5820 5820 5821 5823 5823 5823 5824 5824 5825 5825 5825 5825 5826
5794 5794 5794 5794 5794 5795 5795 5795 5796 5796 5797 5797 5798 5798 5798 5799 5799 5799 5799 5798 5798 5797 5797 5797 5797 5797 5797 5797 5796 5795 5794 5794 5794 5794 5795 5794 5794 5794 5794 5793 5793 5795 5796 5796 5797 5798 5799 5800 5800 5801 5802 5802 5802 5803 5803 5804 5804 5806 5807 5809 5810 5810 5811 5812 5813 5814 5814 5815 5815 5816 5816 5817 5817 5818 5820 5821 5821 5822 5822 5823 5823 5823 5823 5823 5824
5791 5791 5791 5791 5791 5791 5792 5792 5793 5793 5794 5794 5795 5796 5796 5796 5796 5797 5797 5797 5796 5796 5795 5795 5795 5795 5795 5795 5795 5794 5794 5794 5793 5793 5792 5793 5792 5792 5792 5792 5792 5792 5793 5793 5794 5795 5796 5797 5797 5798 5798 5798 5799 5799 5800 5800 5801 5802 5804 5806 5808 5808 5808 5809 5811 5811 5812 5812 5813 5814 5814 5815 5815 5816 5817 5819 5820 5820 5820 5821 5821 5821 5821 5821 5822
5788 5788 5788 5788 5788 5788 5788 5789 5789 5790 5790 5791 5792 5793 5793 5793 5794 5794 5794 5794 5794 5794 5793 5793 5793 5793 5793 5793 5793 5792 5792 5792 5792 5791 5791 5791 5791 5789 5789 5790 5790 5789 5789 5790 5792 5793 5794 5794 5794 5794 5794 5795 5795 5796 5797 5797 5798 5800 5801 5803 5805 5805 5805 5806 5807 5807 5808 5809 5810 5811 5811 5812 5813 5813 5815 5816 5817 5817 5818 5819 5819 5819 5819 5819 5819
5787 5786 5785 5785 5785 5785 5785 5785 5786 5786 5787 5787 5788 5789 5790 5790 5791 5791 5791 5792 5792 5792 5791 5791 5791 5791 5791 5791 5791 5790 5790 5790 5790 5789 5789 5789 5789 5788 5788 5788 5788 5787 5787 5788 5788 5789 5790 5790 5790 5791 5792 5793 5793 5794 5794 5796 5797 5798 5799 5800 5801 5802 5802 5802 5802 5803 5805 5805 5806 5806 5807 5808 5809 5810 5812 5813 5814 5814 5815 5816 5816 5817 5817 5817 5817
5785 5784 5783 5783 5782 5782 5782 5782 5782 5782 5783 5784 5784 5785 5786 5787 5788 5788 5789 5789 5789 5789 5789 5789 5789 5789 5789 5789 5789 5789 5788 5788 5787 5787 5787 5787 5787 5786 5786 5786 5786 5786 5786 5786 5784 5785 5785 5785 5786 5788 5790 5791 5791 5791 5793 5794 5795 5796 5796 5797 5798 5799 5800 5800 5800 5800 5802 5803 5803 5804 5805 5806 5807 5808 5809 5810 5811 5811 5811 5812 5813 5814 5815 5815 5815
5782 5781 5781 5781 5780 5779 5779 5779 5779 5779 5780 5780 5781 5781 5782 5783 5784 5785 5785 5786 5786 5786 5786 5786 5786 5786 5786 5786 5786 5786 5786 5786 5786 5785 5785 5785 5785 5784 5785 5784 5784 5783 5784 5784 5783 5783 5782 5781 5782 5785 5787 5788 5788 5789 5790 5791 5791 5792 5793 5794 5794 5795 5796 5797 5797 5798 5799 5800 5801 5803 5804 5805 5806 5805 5805 5806 5807 5807 5808 5809 5810 5811 5812 5812 5812
5779 5778 5778 5778 5777 5776 5777 5777 5777 5777 5777 5777 5777 5778 5779 5779 5780 5781 5782 5782 5783 5783 5783 5783 5784 5784 5784 5784 5784 5784 5784 5784 5784 5784 5783 5783 5783 5783 5783 5783 5782 5782 5781 5781 5781 5781 5780 5780 5780 5781 5782 5783 5784 5786 5787 5787 5788 5788 5788 5790 5791 5792 5793 5793 5794 5795 5796 5797 5799 5801 5802 5802 5802 5801 5801 5803 5804 5804 5805 5807 5808 5808 5808 5809 5809
5776 5775 5774 5774 5774 5774 5774 5774 5775 5775 5775 5775 5774 5775 5775 5776 5776 5777 5778 5778 5779 5780 5780 5780 5781 5781 5781 5781 5782 5782 5782 5781 5781 5781 5781 5781 5781 5781 5781 5781 5780 5780 5779 5778 5778 5776 5776 5778 5778 5778 5778 5778 5780 5782 5783 5784 5785 5785 5785 5786 5787 5788 5789 5790 5791 5792 5793 5794 5796 5797 5797 5798 5799 5798 5799 5801 5802 5802 5803 5804 5805 5805 5805 5805 5805
5772 5771 5770 5771 5771 5770 5771 5771 5772 5772 5772 5772 5772 5772 5772 5772 5773 5773 5774 5774 5775 5776 5776 5777 5777 5778 5778 5778 5779 5779 5779 5779 5779 5779 5779 5779 5779 5778 5779 5779 5778 5778 5777 5776 5775 5773 5773 5776 5776 5776 5776 5776 5777 5778 5779 5781 5782 5783 5783 5783 5784 5785 5785 5787 5787 5789 5791 5791 5792 5793 5793 5793 5795 5796 5797 5799 5800 5801 5801 5801 5802 5802 5802 5802 5802
5768 5767 5766 5767 5767 5767 5767 5768 5768 5768 5769 5769 5770 5770 5770 5769 5769 5770 5770 5770 5771 5772 5772 5773 5774 5774 5775 5775 5776 5776 5777 5777 5776 5776 5776 5776 5776 5776 5776 5776 5776 5776 5775 5774 5773 5771 5772 5773 5773 5773 5774 5774 5774 5775 5775 5777 5778 5780 5780 5780 5781 5781 5782 5783 5784 5785 5787 5788 5788 5789 5789 5790 5791 5793 5795 5797 5798 5798 5798 5798 5799 5799 5799 5799 5799
5763 5762 5762 5763 5763 5763 5764 5764 5764 5764 5764 5765 5765 5766 5766 5766 5766 5766 5766 5766 5767 5767 5768 5769 5770 5771 5771 5772 5773 5773 5773 5774 5774 5774 5773 5773 5773 5773 5773 5773 5773 5773 5773 5772 5771 5770 5770 5771 5771 5771 5772 5773 5773 5772 5772 5773 5775 5776 5776 5777 5778 5778 5779 5780 5781 5782 5783 5784 5785 5785 5786 5786 5787 5789 5792 5794 5794 5795 5796 5796 5796 5796 5796 5796 5797
5758 5758 5758 5758 5758 5759 5759 5760 5760 5760 5760 5760 5761 5761 5761 5761 5762 5762 5763 5763 5763 5763 5764 5765 5765 5766 5767 5768 5769 5770 5770 5770 5771 5771 5771 5770 5770 5770 5770 5770 5770 5770 5770 5770 5769 5768 5769 5769 5769 5769 5770 5771 5771 5770 5769 5770 5771 5772 5772 5773 5775 5775 5777 5778 5778 5779 5780 5781 5782 5782 5782 5783 5784 5786 5788 5790 5791 5792 5793 5793 5793 5793 5794 5794 5795
5754 5753 5753 5753 5753 5753 5754 5754 5755 5756 5756 5756 5756 5757 5757 5757 5757 5758 5759 5759 5760 5760 5760 5761 5761 5762 5763 5764 5765 5766 5766 5767 5767 5768 5768 5768 5767 5767 5767 5767 5767 5767 5767 5767 5767 5767 5767 5768 5768 5768 5768 5769 5769 5768 5767 5767 5768 5768 5769 5770 5771 5772 5773 5774 5775 5776 5777 5778 5779 5779 5779 5779 5780 5782 5784 5787 5788 5789 5789 5790 5791 5792 5792 5793 5793
5749 5748 5747 5747 5747 5747 5748 5748 5748 5749 5751 5751 5751 5752 5752 5752 5752 5753 5754 5755 5756 5757 5757 5757 5758 5758 5758 5759 5760 5761 5762 5763 5764 5764 5765 5765 5764 5764 5763 5763 5764 5764 5764 5764 5764 5765 5766 5765 5766 5766 5767 5767 5767 5766 5766 5765 5765 5765 5765 5766 5767 5768 5770 5771 5772 5772 5773 5774 5775 5775 5775 5776 5777 5779 5781 5783 5785 5786 5786 5787 5788 5790 5791 5790 5790
5744 5743 5742 5742 5741 5741 5741 5742 5742 5742 5744 5746 5746 5746 5746 5747 5748 5749 5750 5750 5751 5752 5753 5754 5754 5754 5754 5755 5756 5757 5758 5759 5759 5760 5761 5761 5761 5761 5760 5760 5760 5761 5761 5760 5761 5763 5763 5763 5764 5764 5764 5764 5764 5764 5764 5764 5764 5763 5763 5763 5763 5764 5766 5767 5768 5769 5770 5770 5771 5772 5772 5773 5774 5776 5777 5779 5781 5782 5783 5784 5785 5787 5788 5788 5788
5739 5738 5736 5735 5735 5735 5735 5736 5736 5736 5737 5739 5740 5740 5740 5741 5743 5744 5744 5745 5746 5747 5747 5748 5749 5750 5751 5751 5751 5752 5753 5754 5755 5756 5756 5757 5757 5757 5757 5757 5757 5757 5758 5758 5758 5759 5759 5760 5762 5762 5761 5761 5761 5761 5761 5761 5761 5761 5761 5761 5761 5761 5762 5763 5765 5766 5766 5767 5768 5769 5770 5771 5772 5773 5774 5776 5777 5779 5780 5781 5782 5784 5785 5785 5786
5735 5733 5732 5730 5729 5728 5728 5729 5729 5730 5731 5732 5733 5734 5734 5735 5737 5738 5739 5739 5740 5741 5742 5742 5744 5745 5746 5746 5746 5747 5748 5749 5750 5751 5752 5753 5753 5754 5754 5754 5754 5754 5754 5755 5755 5755 5755 5756 5758 5759 5759 5758 5758 5758 5758 5758 5759 5758 5758 5758 5758 5758 5759 5760 5761 5762 5763 5764 5765 5766 5767 5768 5769 5770 5771 5772 5773 5775 5776 5777 5779 5780 5781 5782 5783
5731 5729 5727 5726 5724 5723 5721 5721 5722 5723 5724 5725 5726 5727 5728 5729 5730 5731 5733 5733 5734 5735 5736 5736 5738 5739 5740 5741 5742 5743 5744 5745 5746 5747 5748 5749 5749 5750 5750 5750 5751 5750 5750 5751 5751 5752 5753 5753 5754 5755 5756 5756 5756 5756 5756 5756 5756 5755 5755 5755 5755 5755 5756 5756 5757 5758 5759 5761 5762 5762 5763 5764 5765 5766 5768 5769 5770 5771 5773 5774 5775 5776 5777 5778 5779
5727 5725 5723 5721 5720 5719 5717 5715 5715 5716 5717 5718 5719 5720 5721 5723 5724 5725 5726 5727 5727 5729 5729 5730 5732 5733 5734 5735 5736 5738 5739 5740 5741 5742 5743 5744 5745 5746 5746 5746 5747 5747 5747 5748 5747 5747 5749 5750 5751 5752 5752 5752 5752 5753 5753 5753 5753 5753 5753 5753 5753 5752 5753 5753 5754 5755 5756 5757 5758 5759 5760 5761 5762 5763 5764 5766 5767 5768 5769 5771 5772 5773 5774 5774 5775
5724 5722 5719 5717 5715 5714 5713 5712 5710 5709 5710 5712 5713 5713 5714 5716 5717 5718 5719 5720 5721 5722 5722 5723 5725 5727 5728 5729 5731 5733 5735 5736 5737 5738 5739 5740 5741 5742 5742 5743 5743 5744 5744 5745 5745 5743 5744 5745 5747 5749 5749 5749 5749 5750 5750 5750 5750 5751 5751 5750 5751 5750 5750 5751 5751 5752 5752 5753 5754 5755 5756 5757 5759 5760 5761 5762 5764 5765 5766 5767 5768 5769 5770 5770 5771
5722 5719 5716 5713 5711 5710 5708 5708 5706 5705 5704 5705 5706 5707 5709 5710 5710 5710 5711 5712 5714 5715 5716 5718 5719 5721 5723 5724 5725 5727 5729 5730 5732 5734 5735 5736 5736 5737 5738 5738 5739 5740 5741 5742 5742 5741 5741 5741 5742 5745 5746 5746 5746 5747 5747 5747 5747 5749 5749 5748 5748 5749 5749 5749 5749 5749 5749 5750 5751 5752 5753 5754 5755 5756 5758 5759 5760 5761 5762 5763 5764 5765 5766 5767 5767
5719 5716 5713 5710 5708 5705 5704 5702 5702 5701 5699 5699 5699 5701 5703 5703 5702 5702 5704 5705 5707 5710 5710 5712 5713 5715 5717 5718 5720 5721 5723 5725 5727 5729 5730 5731 5732 5733 5734 5734 5735 5736 5736 5738 5738 5738 5739 5738 5738 5741 5743 5743 5743 5744 5745 5744 5744 5746 5747 5746 5746 5747 5747 5747 5747 5747 5747 5747 5748 5749 5749 5750 5751 5752 5754 5755 5756 5757 5758 5759 5760 5761 5762 5763 5764
5716 5713 5710 5707 5705 5702 5700 5698 5697 5696 5695 5694 5693 5694 5695 5695 5694 5696 5697 5699 5702 5704 5704 5705 5707 5709 5711 5712 5713 5716 5718 5719 5721 5723 5725 5726 5727 5728 5729 5730 5731 5732 5732 5733 5734 5734 5735 5736 5735 5737 5739 5739 5739 5740 5742 5742 5741 5742 5744 5744 5744 5745 5745 5745 5745 5745 5745 5745 5746 5746 5746 5746 5747 5748 5749 5751 5752 5753 5754 5755 5756 5757 5757 5758 5759
5714 5711 5708 5705 5702 5699 5696 5694 5692 5691 5690 5689 5688 5688 5688 5688 5689 5690 5691 5693 5695 5697 5698 5698 5699 5702 5705 5706 5707 5710 5712 5712 5714 5717 5719 5721 5722 5723 5725 5726 5727 5727 5728 5729 5730 5730 5732 5733 5732 5732 5735 5736 5736 5736 5739 5740 5739 5739 5741 5742 5742 5742 5743 5743 5743 5744 5744 5744 5744 5744 5743 5743 5744 5745 5746 5747 5748 5749 5749 5750 5751 5752 5752 5753 5754
5711 5708 5705 5702 5699 5696 5693 5691 5689 5687 5685 5684 5683 5682 5682 5682 5683 5684 5685 5686 5688 5689 5690 5691 5691 5693 5697 5699 5701 5703 5705 5706 5708 5711 5713 5714 5716 5718 5720 5721 5722 5723 5723 5724 5725 5725 5727 5730 5729 5728 5730 5732 5732 5732 5735 5737 5737 5736 5737 5739 5739 5740 5741 5741 5741 5741 5742 5742 5742 5742 5742 5742 5742 5742 5742 5743 5744 5744 5745 5746 5747 5747 5748 5749 5750
5708 5705 5702 5699 5696 5693 5690 5688 5685 5683 5681 5679 5678 5677 5677 5677 5678 5679 5679 5679 5680 5682 5683 5684 5684 5686 5689 5691 5693 5696 5698 5699 5701 5704 5706 5708 5710 5712 5714 5715 5716 5718 5718 5719 5720 5721 5722 5725 5726 5725 5726 5728 5729 5729 5730 5732 5733 5733 5734 5736 5736 5737 5739 5738 5738 5739 5740 5740 5740 5740 5741 5741 5740 5740 5740 5740 5741 5741 5742 5743 5743 5744 5745 5745 5746
5705 5702 5699 5696 5693 5690 5687 5684 5682 5680 5677 5675 5673 5672 5672 5672 5673 5672 5672 5672 5672 5673 5675 5677 5679 5680 5681 5683 5686 5688 5691 5693 5695 5697 5700 5702 5704 5706 5707 5708 5710 5712 5714 5715 5715 5716 5717 5719 5721 5722 5723 5724 5726 5726 5726 5729 5730 5730 5731 5733 5733 5734 5736 5737 5735 5735 5737 5738 5738 5739 5739 5739 5739 5739 5739 5739 5739 5740 5740 5741 5741 5742 5742 5743 5743
5701 5698 5695 5693 5690 5687 5684 5681 5678 5676 5673 5671 5669 5668 5667 5667 5666 5664 5663 5664 5665 5666 5668 5670 5671 5672 5674 5676 5677 5680 5683 5687 5690 5691 5693 5696 5697 5699 5701 5703 5704 5706 5708 5710 5710 5710 5712 5714 5715 5717 5719 5720 5722 5722 5722 5724 5726 5727 5727 5728 5729 5730 5733 5734 5732 5732 5734 5735 5736 5737 5737 5737 5737 5738 5738 5738 5739 5739 5739 5740 5740 5740 5741 5741 5742
5697 5694 5692 5689 5686 5683 5680 5677 5674 5671 5669 5667 5665 5663 5662 5661 5660 5658 5657 5657 5659 5660 5661 5663 5664 5666 5668 5669 5670 5672 5675 5681 5683 5684 5687 5690 5691 5693 5696 5697 5698 5700 5702 5705 5706 5705 5707 5709 5710 5711 5713 5716 5717 5719 5719 5719 5722 5723 5723 5724 5725 5726 5728 5731 5730 5729 5730 5732 5733 5734 5735 5735 5735 5736 5736 5737 5737 5738 5738 5739 5739 5739 5740 5740 5741
5694 5691 5688 5685 5682 5679 5676 5673 5670 5667 5665 5663 5661 5659 5657 5656 5655 5653 5653 5653 5653 5653 5653 5655 5657 5659 5660 5662 5664 5665 5669 5673 5675 5676 5680 5683 5684 5687 5690 5691 5692 5694 5696 5698 5700 5700 5702 5703 5704 5706 5708 5710 5712 5714 5715 5715 5717 5718 5719 5720 5721 5722 5724 5726 5727 5727 5727 5728 5730 5731 5732 5733 5733 5734 5734 5735 5735 5736 5736 5737 5738 5738 5739 5740 5740
5690 5687 5684 5681 5678 5675 5672 5669 5665 5662 5660 5658 5656 5654 5652 5651 5650 5649 5648 5648 5647 5647 5647 5648 5650 5652 5653 5655 5657 5660 5662 5665 5667 5670 5674 5677 5678 5680 5683 5684 5684 5687 5690 5693 5694 5695 5696 5698 5699 5700 5702 5704 5706 5709 5710 5711 5713 5714 5714 5715 5717 5719 5720 5721 5723 5725 5724 5724 5726 5728 5729 5730 5731 5731 5732 5732 5733 5734 5734 5735 5736 5736 5737 5738 5739
5686 5683 5680 5677 5673 5671 5667 5664 5661 5658 5655 5653 5651 5649 5648 5646 5645 5644 5643 5643 5642 5642 5642 5642 5644 5645 5647 5648 5650 5653 5656 5659 5661 5664 5667 5669 5671 5674 5676 5677 5678 5680 5685 5688 5689 5689 5690 5692 5693 5695 5696 5698 5700 5703 5704 5706 5708 5710 5710 5710 5712 5714 5716 5717 5718 5720 5721 5721 5722 5724 5725 5726 5727 5728 5729 5730 5730 5731 5732 5733 5733 5734 5735 5736 5737
5682 5679 5675 5672 5669 5666 5662 5659 5656 5653 5650 5648 5645 5644 5642 5641 5640 5639 5638 5637 5637 5637 5637 5637 5637 5639 5641 5642 5644 5646 5650 5653 5656 5657 5659 5661 5664 5667 5669 5671 5672 5675 5678 5681 5682 5682 5684 5687 5688 5690 5691 5693 5694 5696 5698 5700 5703 5705 5706 5706 5706 5708 5712 5714 5714 5715 5716 5718 5719 5720 5721 5722 5724 5725 5726 5727 5727 5728 5729 5730 5731 5732 5733 5734 5735
5677 5674 5670 5667 5663 5660 5657 5654 5651 5647 5645 5642 5640 5638 5637 5635 5635 5634 5633 5632 5631 5631 5631 5631 5631 5633 5635 5636 5639 5640 5643 5647 5650 5651 5653 5655 5658 5660 5662 5664 5666 5668 5670 5673 5675 5676 5678 5681 5683 5684 5686 5687 5688 5690 5692 5694 5697 5699 5701 5702 5702 5703 5706 5709 5711 5710 5711 5714 5716 5717 5717 5718 5720 5721 5722 5723 5724 5725 5726 5727 5728 5729 5730 5731 5732
5672 5668 5665 5661 5658 5654 5651 5648 5645 5642 5639 5637 5635 5633 5631 5629 5628 5627 5626 5626 5625 5624 5625 5625 5625 5627 5629 5631 5633 5635 5637 5640 5643 5645 5647 5649 5651 5653 5655 5657 5659 5661 5663 5666 5668 5670 5672 5675 5677 5678 5680 5681 5682 5684 5686 5689 5693 5694 5695 5696 5697 5698 5700 5704 5707 5707 5708 5709 5710 5712 5714 5715 5715 5717 5719 5719 5720 5721 5722 5724 5725 5726 5727 5728 5729
5666 5662 5659 5655 5652 5648 5645 5642 5639 5636 5633 5631 5629 5627 5625 5623 5622 5621 5620 5620 5619 5618 5618 5619 5619 5620 5622 5624 5626 5629 5632 5634 5637 5639 5641 5643 5645 5646 5648 5650 5652 5654 5656 5659 5661 5664 5666 5668 5670 5672 5673 5674 5676 5678 5681 5685 5687 5689 5690 5690 5691 5692 5695 5698 5701 5703 5704 5704 5704 5706 5709 5711 5711 5713 5714 5715 5716 5718 5719 5720 5721 5722 5724 5725 5726
5659 5655 5652 5648 5645 5641 5638 5635 5632 5629 5626 5624 5623 5621 5619 5617 5615 5615 5614 5613 5613 5613 5613 5613 5614 5614 5616 5618 5620 5623 5626 5628 5631 5633 5635 5637 5639 5640 5642 5644 5646 5647 5649 5652 5654 5657 5659 5661 5663 5665 5667 5668 5670 5673 5677 5679 5681 5682 5684 5684 5685 5687 5690 5693 5695 5698 5699 5699 5700 5702 5704 5706 5707 5708 5709 5711 5712 5714 5715 5716 5717 5718 5719 5721 5722
5652 5648 5644 5641 5637 5634 5630 5627 5625 5622 5620 5618 5617 5614 5612 5610 5609 5609 5608 5607 5607 5608 5608 5608 5608 5608 5610 5612 5614 5617 5620 5622 5625 5628 5630 5631 5632 5633 5636 5638 5640 5641 5643 5645 5647 5650 5652 5654 5656 5658 5660 5662 5665 5667 5670 5672 5674 5676 5678 5679 5681 5683 5685 5687 5689 5691 5694 5695 5695 5697 5699 5702 5703 5703 5704 5706 5708 5709 5710 5711 5712 5714 5715 5716 5717
5644 5640 5636 5633 5629 5626 5623 5620 5617 5615 5613 5611 5610 5608 5605 5604 5604 5603 5603 5602 5601 5602 5602 5603 5603 5603 5604 5606 5608 5610 5613 5616 5619 5622 5623 5625 5625 5627 5629 5631 5633 5635 5637 5638 5640 5643 5645 5647 5649 5652 5653 5656 5659 5661 5663 5666 5668 5670 5672 5674 5676 5678 5679 5681 5683 5685 5688 5689 5690 5691 5694 5696 5698 5699 5699 5701 5703 5704 5705 5706 5707 5709 5710 5711 5713
5636 5632 5628 5625 5621 5618 5615 5612 5610 5608 5606 5604 5603 5601 5599 5598 5598 5597 5596 5596 5596 5596 5596 5597 5597 5597 5597 5599 5602 5604 5606 5609 5612 5614 5616 5618 5619 5621 5623 5624 5626 5629 5631 5632 5634 5636 5638 5640 5642 5645 5647 5650 5652 5654 5656 5659 5662 5664 5666 5668 5670 5672 5673 5675 5676 5679 5681 5683 5685 5687 5688 5691 5694 5694 5694 5696 5698 5699 5700 5702 5703 5704 5705 5707 5708
5629 5624 5620 5617 5614 5611 5608 5606 5603 5601 5600 5598 5596 5595 5593 5592 5592 5591 5590 5590 5590 5590 5590 5591 5591 5590 5591 5593 5594 5597 5600 5602 5605 5607 5609 5611 5613 5615 5617 5618 5620 5623 5625 5627 5628 5630 5631 5633 5635 5638 5640 5643 5646 5648 5650 5653 5655 5657 5660 5662 5664 5666 5668 5669 5670 5673 5675 5677 5679 5682 5683 5685 5688 5689 5689 5690 5693 5694 5696 5697 5698 5699 5700 5702 5703
5621 5617 5613 5610 5608 5605 5602 5600 5597 5595 5594 5592 5590 5588 5587 5586 5586 5585 5585 5584 5584 5584 5585 5585 5585 5585 5586 5587 5588 5591 5593 5595 5598 5601 5603 5605 5607 5609 5611 5613 5615 5617 5619 5621 5623 5624 5626 5628 5629 5631 5634 5636 5639 5642 5644 5647 5649 5651 5653 5656 5658 5660 5661 5663 5665 5667 5670 5671 5673 5676 5678 5679 5682 5684 5684 5685 5688 5689 5690 5692 5693 5694 5695 5696 5698